Wind_Speed
3 3 3 4 4 5 5 6 7 7 8 10 11 12 12 12 12 13 14 14 13 13 13 13 13 13 13 13 14 15 16 17 19 20 22 24 25 28 30 32 34 36 38 40
4 5 5 5 5 5 6 7 8 9 10 11 12 12 13 13 13 14 14 15 15 15 15 15 15 16 16 16 17 17 18 19 20 22 23 25 26 29 31 33 35 37 40 42
4 6 6 6 7 7 8 9 10 10 11 11 12 13 14 14 15 15 16 17 17 17 17 18 19 19 21 21 21 22 22 22 24 25 26 27 29 30 32 34 37 39 41 44
5 6 7 7 8 9 9 10 11 12 12 13 14 15 16 16 16 17 18 18 19 20 20 21 22 23 23 24 24 25 26 27 28 29 30 31 32 34 36 37 39 41 44 46
7 8 8 9 10 10 11 11 13 13 14 15 16 16 17 17 18 19 20 21 22 22 23 24 25 26 26 26 27 28 29 30 32 33 34 35 36 38 39 41 43 45 47 50
10 11 11 11 12 13 13 13 15 15 16 17 17 18 18 19 20 21 22 23 24 25 25 26 27 27 28 29 30 31 32 33 35 36 37 39 40 42 44 45 47 49 50 51
12 12 12 13 14 14 15 16 16 17 17 18 18 19 20 21 22 23 24 25 26 26 27 28 28 29 30 32 33 34 35 36 37 39 41 43 44 46 47 49 50 51 51 52
14 14 14 15 15 16 16 16 17 18 18 19 20 21 22 23 25 26 27 28 29 29 30 31 31 32 34 35 36 37 38 39 40 42 44 46 47 48 50 51 51 52 52 53
16 16 17 17 17 18 18 18 18 19 19 21 22 24 25 26 27 28 30 31 32 32 33 34 35 36 37 38 39 40 41 42 44 45 46 48 49 50 51 52 52 52 53 53
17 18 18 18 19 19 20 20 20 21 22 23 24 26 27 29 30 31 32 33 34 34 35 36 36 37 38 39 40 41 42 44 45 46 48 49 50 51 51 52 52 52 52 52
20 20 20 20 21 21 21 22 23 23 24 25 27 28 29 31 32 32 33 34 35 36 36 36 37 38 39 40 41 43 44 45 46 47 48 49 50 50 51 52 52 52 51 50
21 22 22 22 23 23 23 24 25 25 26 27 29 30 32 32 33 34 34 35 36 36 37 37 38 39 40 42 43 44 45 45 47 48 49 49 50 50 51 51 51 50 50 48
23 24 24 24 25 25 26 26 26 27 28 29 30 32 33 34 34 35 36 36 37 37 37 38 39 41 42 43 44 45 45 46 47 48 49 49 49 49 49 50 50 49 48 48
25 26 26 27 27 28 28 28 28 29 30 31 32 33 34 35 36 36 37 37 37 37 38 39 40 42 43 44 45 45 46 47 47 48 49 49 49 49 49 48 47 47 47 47
27 27 28 28 29 29 30 30 30 31 32 32 33 34 35 36 36 37 37 37 38 38 39 40 41 42 43 45 45 45 46 47 47 48 48 48 48 48 48 48 47 47 46 46
28 29 29 29 30 30 31 31 32 32 33 34 34 35 36 36 37 37 37 38 38 39 40 41 42 43 44 45 45 46 46 47 47 48 48 47 48 48 47 47 47 47 46 45
30 29 30 30 31 31 31 32 33 33 34 35 35 36 36 37 37 37 37 38 38 39 40 42 43 44 44 45 45 45 46 46 46 46 46 46 46 47 47 47 46 46 45 44
31 31 31 31 32 32 32 33 34 34 35 35 36 36 37 37 37 37 38 38 39 39 40 41 42 43 44 44 44 44 45 45 45 45 45 46 46 46 46 46 45 44 43 41
32 32 32 32 33 33 33 34 35 35 35 36 37 37 38 38 38 38 38 38 39 39 40 41 42 43 43 43 43 43 44 44 44 45 45 46 46 45 45 44 43 41 39 37
33 33 33 33 33 34 34 35 35 36 36 37 38 38 39 38 38 38 38 39 39 40 41 41 42 42 43 43 43 43 44 44 44 44 45 45 44 43 42 41 40 39 37 35
34 34 34 34 34 35 35 36 37 37 38 38 39 39 39 38 38 38 39 39 39 40 41 41 42 42 43 43 43 43 43 43 43 44 44 43 42 41 40 39 38 36 34 32
34 34 35 35 35 36 36 37 37 38 38 38 38 39 39 39 38 38 39 39 40 40 41 41 42 42 42 42 42 43 43 43 42 42 42 41 40 39 38 37 35 33 31 29
35 35 36 36 37 37 37 37 37 38 38 38 38 38 38 38 38 38 39 40 40 40 41 41 42 42 42 42 42 42 42 41 41 40 40 40 38 37 35 34 32 31 29 27
37 37 37 37 38 38 37 37 38 38 38 38 38 38 38 38 38 38 39 39 40 40 40 40 42 42 42 42 42 41 40 40 39 39 39 37 35 34 33 32 31 29 27 25
39 38 38 38 38 38 38 38 38 38 38 37 37 37 38 38 38 38 39 39 39 39 39 41 42 42 42 41 40 40 39 39 39 38 36 34 33 32 31 30 28 27 24 22
40 39 39 39 39 38 38 38 38 38 37 37 37 37 37 38 38 38 38 38 38 39 39 40 42 42 41 40 39 39 38 38 37 35 33 32 31 30 29 27 26 24 22 20
40 40 39 39 38 38 38 38 38 37 37 36 37 37 37 37 38 38 38 38 38 39 39 40 41 40 39 39 39 38 38 36 34 33 31 30 29 28 26 25 23 21 19 17
Wind_Direction
20 14 3 347 340 334 332 330 330 328 327 324 329 330 331 331 330 330 329 331 332 332 332 331 329 324 317 312 307 304 298 290 287 285 284 281 279 275 272 271 271 270 268 268
353 349 345 337 332 330 327 328 328 324 321 320 323 324 326 328 328 329 329 328 328 325 323 321 322 320 317 313 310 307 304 300 294 292 290 287 285 281 278 277 275 275 274 272
343 334 332 329 323 323 324 324 323 322 320 320 320 321 321 322 322 322 322 322 321 321 319 317 317 314 312 310 308 306 305 303 300 296 295 292 290 288 285 283 281 279 278 276
335 324 325 323 316 314 315 316 317 318 317 318 318 318 318 318 318 320 319 318 317 318 317 316 315 313 310 308 307 305 303 301 299 297 296 295 293 292 290 288 286 284 282 281
329 322 316 310 310 309 310 312 313 313 313 313 313 313 313 314 314 315 315 315 315 314 314 314 313 312 310 308 307 306 304 303 302 300 298 296 295 294 292 291 289 288 286 283
325 320 318 313 308 306 304 305 308 310 311 311 311 311 310 310 311 312 312 312 312 312 311 311 310 310 309 309 308 306 304 303 302 302 301 299 297 296 295 293 291 290 288 286
319 319 317 315 313 311 306 305 304 305 306 307 308 309 310 310 310 311 311 311 311 310 310 309 309 309 309 308 308 307 305 303 303 302 302 301 300 298 297 296 294 293 291 289
308 310 312 316 316 313 309 306 304 303 303 304 306 307 308 309 310 310 309 309 309 309 309 309 308 308 307 307 307 306 306 305 303 303 303 302 301 300 299 297 296 295 293 291
304 305 306 309 311 310 308 306 305 305 305 305 305 306 306 307 308 308 308 308 308 308 307 307 307 307 307 307 307 307 306 306 305 305 305 304 303 302 302 300 298 297 295 293
302 302 304 306 306 306 305 305 305 305 306 306 305 306 306 305 305 306 306 307 307 307 307 307 307 308 308 308 308 308 307 307 307 307 307 306 306 305 304 303 301 300 298 295
299 301 301 302 302 303 304 304 305 305 305 306 307 306 306 306 306 306 306 307 306 307 307 307 308 308 309 310 310 310 310 309 309 309 309 309 308 308 307 306 304 302 300 297
296 297 298 298 298 299 300 302 304 305 306 307 306 306 306 305 305 305 306 307 307 307 307 308 308 309 310 310 311 311 311 310 310 311 311 310 310 309 309 308 306 304 302 300
292 293 294 295 296 298 299 301 302 304 305 306 306 306 305 305 305 305 305 306 306 306 307 308 309 310 311 311 312 312 311 311 312 312 312 312 311 311 311 309 308 307 305 303
291 291 292 293 294 296 298 300 302 303 304 305 306 307 306 306 305 306 306 306 306 306 307 308 309 310 311 311 311 312 312 312 312 313 313 313 313 313 312 311 310 309 307 306
290 290 291 293 294 295 297 299 301 303 304 305 306 307 307 306 306 306 306 306 305 306 307 308 309 310 311 311 311 312 312 313 313 314 313 313 314 314 314 313 312 311 309 308
289 291 291 292 294 296 298 299 300 302 304 305 306 307 307 307 307 306 306 306 306 307 308 309 310 311 311 312 312 313 313 313 314 314 314 314 315 315 315 315 314 312 311 310
288 289 291 293 294 296 297 299 300 301 303 305 306 307 307 307 307 306 307 307 307 307 308 309 310 311 312 313 313 314 314 314 315 315 316 316 317 317 317 317 316 315 313 312
286 288 290 293 295 295 296 299 301 302 303 304 305 307 308 308 307 307 307 307 308 309 310 311 311 312 314 314 315 315 316 316 316 317 317 318 318 318 319 319 319 317 316 315
286 288 290 291 293 293 296 298 300 301 302 304 305 307 307 307 307 307 308 309 309 310 311 311 312 313 315 315 316 316 317 317 317 318 319 319 320 320 321 321 321 321 320 319
285 287 288 291 292 293 295 297 299 301 302 303 304 306 307 308 307 307 307 308 309 310 311 312 313 314 316 316 317 317 318 318 318 319 320 321 322 322 323 324 324 323 323 322
284 286 288 290 292 293 294 296 298 300 302 303 305 305 307 307 307 307 308 309 309 310 312 312 313 315 316 317 317 318 318 318 318 319 320 321 322 324 324 325 326 326 325 325
282 284 287 289 291 292 294 295 297 300 302 303 304 306 307 307 306 306 308 309 310 311 312 313 314 315 316 317 318 318 318 319 319 320 321 322 323 324 326 326 327 328 328 328
281 283 286 288 290 291 293 295 296 298 301 302 304 305 306 307 306 307 308 310 311 312 313 313 314 316 316 317 318 318 319 320 320 321 322 323 324 325 326 327 328 329 329 329
280 282 285 287 289 290 292 293 295 297 299 301 302 304 306 306 307 308 309 310 311 313 313 313 314 316 317 317 318 319 320 320 321 322 323 324 325 326 326 328 329 330 330 330
279 281 283 286 288 289 290 291 293 295 297 299 301 304 304 305 307 308 310 311 312 313 313 314 315 316 317 318 319 320 321 321 322 322 323 324 326 326 327 328 330 332 332 332
279 281 283 285 287 288 289 290 292 294 296 297 300 302 303 305 307 309 310 311 312 313 313 314 315 316 317 318 319 321 321 321 322 322 322 324 326 327 328 329 330 332 333 333
278 280 282 284 285 287 288 289 291 292 294 295 298 300 301 304 306 308 310 311 312 313 313 314 316 317 317 318 319 321 321 321 322 322 323 324 326 328 329 330 331 333 334 335
Height
5677 5676 5675 5674 5673 5671 5670 5669 5668 5666 5664 5662 5660 5657 5655 5653 5650 5648 5645 5642 5640 5637 5634 5632 5629 5627 5625 5623 5621 5619 5617 5615 5613 5612 5610 5608 5607 5606 5605 5604 5604 5603 5603 5602
5678 5676 5675 5674 5672 5671 5669 5668 5666 5664 5663 5660 5658 5656 5653 5651 5649 5646 5643 5641 5638 5635 5632 5630 5627 5624 5622 5620 5617 5615 5612 5610 5608 5606 5603 5601 5599 5597 5596 5594 5593 5592 5591 5590
5678 5676 5675 5674 5672 5670 5668 5667 5665 5663 5662 5658 5656 5654 5651 5649 5646 5644 5641 5638 5635 5633 5630 5627 5624 5621 5618 5615 5612 5610 5607 5604 5602 5599 5596 5594 5591 5588 5586 5584 5582 5580 5577 5575
5677 5676 5674 5675 5670 5669 5667 5665 5663 5661 5659 5656 5654 5651 5649 5646 5644 5641 5638 5635 5632 5629 5626 5623 5620 5617 5613 5610 5607 5604 5600 5597 5594 5591 5588 5585 5582 5579 5576 5573 5570 5567 5563 5560
5675 5674 5672 5672 5669 5666 5665 5663 5660 5658 5656 5654 5651 5649 5646 5643 5640 5638 5635 5631 5628 5625 5622 5618 5615 5612 5608 5604 5601 5597 5594 5590 5587 5583 5579 5576 5572 5568 5564 5561 5557 5553 5549 5545
5673 5671 5670 5670 5667 5663 5663 5661 5658 5655 5653 5650 5648 5646 5643 5640 5636 5633 5630 5627 5623 5620 5616 5613 5609 5605 5601 5598 5594 5590 5586 5582 5578 5574 5570 5566 5561 5557 5552 5548 5543 5538 5533 5527
5671 5668 5668 5666 5663 5661 5660 5658 5654 5651 5649 5646 5644 5642 5639 5635 5632 5628 5625 5621 5618 5614 5610 5606 5602 5598 5594 5590 5586 5581 5577 5573 5568 5564 5559 5555 5550 5544 5539 5533 5528 5522 5516 5510
5667 5665 5666 5662 5659 5657 5656 5652 5649 5647 5644 5642 5639 5636 5633 5630 5626 5623 5619 5615 5611 5607 5603 5599 5595 5591 5586 5582 5577 5572 5568 5563 5558 5553 5548 5542 5536 5530 5524 5518 5512 5505 5499 5492
5665 5664 5660 5657 5655 5653 5650 5647 5644 5642 5639 5636 5633 5630 5627 5624 5620 5616 5612 5608 5604 5600 5596 5591 5587 5582 5577 5573 5567 5562 5557 5552 5546 5540 5534 5528 5521 5515 5508 5501 5494 5488 5481 5475
5659 5658 5655 5652 5649 5647 5645 5642 5639 5637 5634 5630 5627 5624 5621 5617 5613 5609 5605 5600 5596 5591 5587 5582 5578 5573 5568 5563 5557 5552 5546 5540 5534 5528 5521 5513 5506 5499 5492 5485 5478 5471 5465 5458
5654 5653 5650 5647 5644 5641 5639 5636 5633 5631 5627 5624 5621 5617 5613 5609 5605 5601 5597 5592 5587 5583 5578 5573 5568 5563 5558 5553 5547 5541 5535 5528 5522 5515 5508 5500 5492 5485 5477 5470 5462 5455 5448 5442
5649 5647 5644 5642 5638 5635 5632 5630 5627 5624 5620 5617 5613 5609 5605 5601 5597 5592 5588 5583 5578 5573 5568 5563 5558 5553 5548 5542 5536 5530 5523 5516 5509 5502 5495 5487 5480 5472 5462 5455 5447 5439 5432 5426
5642 5639 5637 5634 5632 5629 5626 5623 5620 5617 5613 5609 5605 5601 5596 5592 5588 5583 5578 5573 5569 5564 5559 5554 5548 5543 5537 5531 5524 5518 5511 5504 5497 5490 5482 5474 5467 5459 5451 5442 5433 5425 5418 5411
5634 5632 5629 5627 5624 5621 5618 5615 5612 5609 5605 5601 5597 5592 5587 5583 5578 5573 5569 5564 5559 5554 5549 5544 5538 5532 5526 5520 5513 5506 5500 5492 5485 5478 5470 5462 5455 5446 5438 5430 5423 5414 5406 5399
5626 5624 5621 5619 5616 5613 5610 5607 5604 5600 5596 5592 5587 5583 5578 5573 5568 5564 5559 5554 5549 5544 5539 5533 5528 5522 5515 5508 5502 5495 5488 5481 5473 5466 5458 5450 5442 5434 5426 5418 5410 5402 5394 5387
5617 5615 5612 5610 5607 5604 5601 5598 5595 5591 5587 5583 5578 5573 5568 5564 5559 5554 5549 5544 5539 5534 5529 5523 5517 5511 5504 5497 5490 5483 5476 5469 5462 5454 5447 5439 5431 5422 5414 5406 5398 5390 5382 5375
5608 5605 5603 5601 5598 5595 5592 5589 5585 5581 5577 5573 5569 5564 5559 5554 5549 5544 5539 5534 5529 5524 5518 5512 5506 5500 5493 5486 5480 5473 5466 5458 5451 5443 5435 5428 5419 5411 5403 5394 5386 5378 5370 5363
5598 5596 5594 5591 5588 5585 5582 5579 5576 5572 5568 5563 5559 5554 5549 5544 5539 5534 5529 5524 5519 5513 5508 5502 5496 5489 5483 5476 5469 5462 5455 5448 5440 5433 5425 5417 5409 5400 5392 5383 5375 5367 5359 5351
5587 5586 5583 5581 5578 5575 5572 5569 5565 5562 5558 5553 5549 5544 5539 5534 5530 5525 5520 5514 5509 5503 5498 5492 5486 5479 5473 5466 5459 5452 5445 5437 5430 5422 5415 5407 5398 5390 5382 5373 5365 5357 5349 5342
5577 5575 5573 5570 5568 5565 5562 5559 5555 5551 5547 5543 5539 5534 5529 5524 5520 5515 5510 5505 5499 5494 5488 5482 5476 5469 5463 5456 5449 5442 5435 5428 5420 5413 5405 5397 5388 5380 5372 5364 5356 5349 5341 5335
5566 5564 5562 5560 5557 5554 5551 5548 5544 5541 5537 5533 5528 5524 5519 5514 5509 5505 5500 5495 5489 5484 5478 5472 5466 5460 5453 5446 5439 5432 5425 5418 5411 5403 5395 5387 5379 5371 5363 5356 5348 5341 5334 5328
5555 5553 5551 5549 5546 5543 5540 5537 5533 5530 5526 5522 5518 5513 5509 5504 5499 5495 5490 5485 5480 5474 5468 5462 5456 5450 5443 5436 5430 5423 5416 5408 5401 5394 5386 5378 5371 5363 5356 5348 5341 5335 5328 5322
5543 5541 5539 5537 5535 5532 5529 5526 5522 5519 5515 5511 5507 5503 5499 5494 5489 5485 5481 5475 5470 5464 5459 5453 5446 5440 5434 5427 5420 5413 5406 5399 5392 5385 5377 5370 5363 5356 5349 5342 5335 5329 5323 5318
5531 5529 5528 5526 5523 5520 5518 5514 5511 5508 5504 5501 5497 5493 5489 5484 5480 5475 5470 5465 5460 5454 5449 5443 5437 5430 5424 5417 5410 5404 5397 5390 5383 5376 5369 5362 5355 5349 5342 5336 5330 5324 5318 5313
5518 5517 5515 5513 5511 5508 5506 5503 5500 5496 5493 5490 5486 5482 5478 5474 5470 5466 5461 5455 5450 5444 5439 5433 5427 5421 5414 5408 5401 5395 5388 5381 5375 5368 5361 5355 5349 5342 5336 5330 5325 5319 5314 5309
5505 5504 5503 5501 5499 5496 5493 5491 5488 5485 5482 5479 5476 5472 5468 5464 5460 5455 5451 5445 5440 5435 5429 5424 5418 5411 5405 5399 5392 5386 5379 5373 5366 5360 5354 5348 5342 5336 5331 5325 5320 5315 5310 5306
5492 5491 5490 5488 5486 5484 5482 5479 5477 5474 5471 5468 5465 5462 5458 5454 5450 5446 5441 5436 5430 5425 5420 5414 5408 5402 5396 5390 5384 5377 5371 5364 5358 5352 5347 5342 5336 5331 5326 5321 5316 5311 5307 5303